CW3862 Weather Reports


Display with metric or nautical units.
time (UTC)temp
F
wind
direction
speed
MPH
gust
MPH
rain 1hr
in
rain 24hr
in
rain mn
in
humidity
%
barometer
mb
20200227230016 80 88 1.0 8.0 0.00 0.00 0.00 12 1017.4
20200227224535 80 112 3.0 9.0 0.00 0.00 0.00 11 1017.4
20200227223137 80 123 2.0 8.0 0.00 0.00 0.00 11 1017.5
20200227220007 81 59 2.0 9.0 0.00 0.00 0.00 10 1017.6
20200227213055 84 49 2.0 6.0 0.00 0.00 0.00 12 1017.7
20200227210007 82 49 2.0 9.0 0.00 0.00 0.00 13 1018.0
20200227204519 82 55 0.0 0.0 0.00 0.00 0.00 13 1018.1
20200227193011 80 49 3.0 9.0 0.00 0.00 0.00 13 1019.3
20200227191529 79 48 3.0 7.0 0.00 0.00 0.00 13 1019.4
20200227174530 72 323 4.0 7.0 0.00 0.00 0.00 16 1020.0
20200227160032 58 29 1.0 4.0 0.00 0.00 0.00 32 1019.9
20200227141538 46 13 1.0 5.0 0.00 0.00 0.00 42 1019.7
20200227124546 45 24 1.0 4.0 0.00 0.00 0.00 49 1020.1
20200227111512 47 84 2.0 3.0 0.00 0.00 0.00 39 1020.3
20200227100005 48 54 3.0 6.0 0.00 0.00 0.00 35 1020.3
20200227094526 47 105 1.0 5.0 0.00 0.00 0.00 41 1020.6
20200227083009 48 107 0.0 3.0 0.00 0.00 0.00 42 1020.9
20200227081517 49 107 2.0 5.0 0.00 0.00 0.00 41 1020.8
20200227064504 53 46 0.0 3.0 0.00 0.00 0.00 31 1020.6
20200227051525 56 40 1.0 3.0 0.00 0.00 0.00 27 1020.2
20200227034521 61 40 1.0 4.0 0.00 0.00 0.00 18 1020.1
20200227021537 68 107 4.0 11.0 0.00 0.00 0.00 12 1019.6
20200227013015 71 103 4.0 11.0 0.00 0.00 0.00 12 1019.3
20200227010016 73 121 0.0 9.0 0.00 0.00 0.00 12 1019.4
20200227004517 75 151 0.0 0.0 0.00 0.00 0.00 11 1019.4